Theta_e
327 318 312 311 319 318 313 309 295 298 299 291 290 291 292 300 302 301 302 305 303 308 310 310 310 310 309 309 312 317 318 309 310 298 298 318 334 338 339 339 340 339 338 338 337 337 338 341 342 341 341 341 340 340 341 344 347 347 347 345 342 341 339 342 343 342 343 343 343 343 343 343 344 344 343 343 344 345 345 343 341 341 341 341 341 342 341 341 341 341 341 341 343 344 345 344 345
322 318 314 315 315 311 302 307 297 292 291 290 289 292 294 297 298 299 299 302 305 308 307 307 308 310 318 318 318 317 317 320 321 319 324 332 337 337 338 339 340 338 338 338 337 336 336 339 343 342 341 341 340 339 343 347 347 346 345 343 342 341 340 341 340 340 340 341 342 340 344 344 342 342 342 342 343 342 343 342 341 342 342 341 341 342 342 341 340 341 341 341 342 343 344 344 344
324 319 314 317 312 310 307 305 295 290 290 286 288 291 296 295 297 300 304 307 308 308 308 308 310 309 308 313 315 313 308 325 325 326 325 333 331 333 338 340 340 339 338 338 338 336 336 338 342 343 342 342 341 341 345 347 347 346 344 342 342 341 341 341 341 341 340 342 342 342 344 345 345 344 343 343 342 339 337 340 341 341 341 341 342 342 342 342 341 341 340 341 342 343 343 344 344
322 319 314 314 306 307 299 297 293 293 291 287 289 295 294 299 300 303 306 308 308 307 308 307 305 311 314 313 315 321 317 319 325 326 325 327 331 336 338 340 340 339 338 338 338 337 337 340 343 344 343 343 342 343 343 345 346 346 343 342 341 342 341 338 339 341 342 342 342 342 346 346 346 344 342 339 339 340 343 341 340 340 341 341 342 343 342 342 343 342 341 341 342 342 343 343 344
318 320 316 312 309 304 301 297 294 291 290 288 288 294 300 302 303 305 306 307 307 307 308 308 304 310 316 316 318 310 312 321 324 327 325 329 336 337 338 339 339 337 336 337 338 337 337 341 342 343 343 343 343 342 342 343 346 346 344 342 342 341 341 340 340 340 341 340 340 341 345 345 345 344 343 342 343 344 343 342 341 341 341 342 342 342 342 342 342 342 341 341 342 342 343 343 343
315 315 318 313 307 307 302 295 293 292 293 292 291 298 301 303 304 306 306 307 307 307 308 308 304 306 315 317 320 314 322 316 324 326 328 330 334 337 336 336 337 335 336 337 338 337 337 340 341 344 343 343 343 342 342 341 343 345 345 343 342 341 341 340 340 340 340 340 340 338 343 343 343 344 343 343 342 343 344 343 342 342 341 341 342 342 342 341 341 341 341 340 341 342 342 342 343
313 311 310 308 307 306 295 292 292 292 293 295 296 300 303 304 305 306 305 306 307 307 307 309 315 313 312 317 318 323 327 325 325 327 330 332 334 334 335 336 336 335 336 338 339 338 338 340 343 344 344 343 343 342 342 343 346 346 346 345 343 342 341 341 341 340 340 337 336 336 342 343 343 341 341 341 341 341 342 342 342 341 341 341 341 342 341 342 341 341 340 340 341 342 342 342 341
317 309 308 299 297 298 294 292 293 292 294 297 302 303 304 305 306 306 304 303 304 305 307 308 307 308 308 316 314 324 329 330 329 331 333 333 333 333 334 336 335 335 337 339 338 338 342 340 343 343 344 343 343 343 342 342 344 344 344 345 343 342 342 341 341 341 339 339 339 338 337 338 339 339 339 339 340 339 339 340 340 340 340 340 341 341 341 341 341 340 340 340 340 341 341 341 341
311 311 309 302 297 297 293 293 292 295 294 301 302 307 310 306 306 305 302 304 304 305 306 307 307 304 311 317 315 323 326 331 332 332 333 333 332 332 334 337 335 335 337 338 338 338 338 339 341 343 343 344 344 343 342 342 342 343 344 345 345 342 342 342 341 341 340 338 337 337 337 337 336 338 338 338 339 339 340 340 339 340 341 340 340 341 340 340 340 340 340 339 340 340 340 340 340
306 308 299 298 296 294 292 290 293 294 295 301 303 305 305 305 305 305 303 303 303 305 306 306 307 310 316 314 316 321 323 330 332 331 332 333 333 332 334 338 337 336 337 338 338 339 339 342 340 341 342 344 344 343 342 342 341 342 343 344 344 343 342 342 341 340 339 338 337 336 337 337 337 338 337 337 339 341 341 341 341 341 340 340 340 340 339 339 340 340 339 338 339 339 339 339 339
301 306 305 299 294 291 292 290 292 295 296 298 300 305 305 305 305 303 304 303 303 304 305 308 313 314 318 317 316 323 328 329 330 329 332 332 333 331 337 338 337 336 336 337 338 339 339 338 341 339 341 342 343 344 344 343 341 341 343 343 343 343 342 342 341 340 339 339 338 337 337 336 339 341 343 342 342 341 341 340 340 340 340 340 339 339 339 339 339 340 339 338 338 339 339 339 338
302 301 302 293 292 292 291 292 293 294 296 298 298 303 302 304 303 301 301 302 304 304 305 304 305 316 315 315 315 323 327 327 329 331 332 333 332 332 337 338 337 335 337 338 339 339 338 338 338 340 338 339 340 341 342 342 342 342 343 343 343 343 342 341 340 340 339 339 340 338 336 337 339 339 341 341 341 340 340 340 340 340 339 339 338 338 338 337 338 338 337 337 337 338 338 338 338
303 302 296 293 289 292 291 292 293 293 295 295 298 302 302 303 302 302 301 304 304 304 305 306 306 308 310 314 319 323 325 326 328 331 333 332 331 333 337 338 338 337 338 338 338 337 337 337 337 338 336 334 335 337 338 340 341 342 342 343 342 342 341 341 340 341 341 340 341 341 340 339 338 338 340 340 340 339 338 338 338 338 338 338 337 336 337 337 337 337 337 336 337 337 337 337 337
306 306 299 292 293 293 294 293 293 292 292 295 298 302 304 303 303 303 304 303 302 303 305 308 309 321 316 318 318 319 323 328 329 331 332 331 332 332 336 338 338 338 338 338 337 337 337 337 337 336 335 336 334 333 333 336 339 341 341 341 342 342 342 342 340 340 339 338 338 337 337 336 336 336 337 337 338 337 337 337 337 337 336 336 336 336 336 336 337 336 336 336 336 336 336 337 336
304 306 301 297 293 294 293 293 293 293 292 297 300 301 304 304 302 301 303 300 301 305 307 308 307 305 310 315 314 318 323 328 329 330 330 331 332 332 335 337 337 338 338 338 338 337 336 337 337 336 335 335 334 334 334 335 335 337 338 338 338 339 339 338 336 335 334 334 334 333 332 331 330 330 331 333 334 333 333 332 336 336 335 335 336 336 336 336 336 336 336 336 335 335 335 335 335
308 304 301 297 293 293 294 295 295 293 294 297 300 301 301 302 303 301 302 302 303 306 304 303 307 306 311 315 317 323 326 329 330 329 328 329 331 331 332 334 336 337 338 338 337 336 337 336 337 337 335 335 334 334 333 333 332 333 335 335 334 334 334 334 333 331 328 327 328 328 327 327 326 325 326 327 329 331 330 329 332 335 335 335 335 335 335 335 335 335 335 335 333 332 332 331 331
308 303 295 292 291 294 295 295 295 292 295 298 301 301 301 300 302 301 302 306 304 304 310 311 308 323 320 319 323 326 328 329 327 327 327 327 329 328 329 331 333 334 336 338 337 337 336 336 337 336 335 335 334 334 334 333 331 330 329 329 329 329 330 329 328 324 321 322 323 324 325 326 324 325 324 323 324 325 323 325 330 334 335 334 334 334 335 334 334 335 334 333 332 330 327 327 326
306 298 293 292 292 294 295 296 295 297 297 297 299 300 300 298 300 302 302 302 303 305 310 313 322 322 324 324 327 328 328 328 327 325 325 325 327 326 326 327 330 330 332 334 337 338 337 336 336 336 335 335 334 335 336 333 331 331 329 328 327 325 325 324 325 325 327 323 323 325 326 325 325 324 324 328 323 324 324 324 326 331 333 333 333 333 333 332 332 332 332 332 331 329 325 318 319
300 296 295 291 293 295 298 297 298 298 297 299 300 300 302 301 300 300 299 297 301 302 303 312 318 321 324 325 326 326 326 326 325 325 325 324 325 325 326 325 327 329 329 332 334 337 337 337 336 335 335 335 334 335 336 334 333 332 330 329 327 325 326 326 326 326 324 324 323 324 324 323 325 324 324 324 322 320 323 323 326 328 330 330 331 331 331 331 330 331 330 330 331 327 316 316 318
300 297 294 294 297 297 297 297 299 299 300 299 299 300 301 301 301 302 299 298 299 300 302 306 316 318 320 322 324 325 325 325 324 324 325 324 325 326 326 325 325 328 330 331 332 336 337 337 336 337 336 335 335 335 335 333 332 332 331 330 329 327 326 327 326 327 327 325 326 325 323 325 324 323 325 325 324 321 321 321 322 323 324 324 324 325 327 329 328 328 328 327 321 318 317 317 317
299 296 295 297 298 297 297 297 297 300 302 300 300 298 298 300 300 301 298 298 297 298 305 306 312 319 320 322 323 324 324 324 323 323 324 324 324 326 327 327 325 328 329 330 330 333 336 337 337 337 337 336 336 335 334 333 332 331 331 331 330 329 327 327 328 327 328 327 326 326 325 324 324 323 323 322 321 321 319 318 319 318 316 316 319 316 316 317 316 316 315 316 314 316 317 320 319
302 296 298 298 296 296 298 297 296 299 299 301 298 298 298 300 300 299 299 296 294 298 302 306 317 322 321 321 322 323 323 323 323 322 323 323 324 325 325 325 326 327 328 329 329 331 333 336 337 337 337 336 336 335 334 333 332 330 330 331 330 329 329 329 329 328 329 327 326 325 325 324 324 323 322 322 322 322 320 319 319 318 315 315 317 314 315 314 316 315 315 315 315 316 318 320 320
295 296 298 296 297 297 298 297 296 297 300 300 298 299 299 298 298 299 298 297 297 299 300 304 317 324 324 324 323 322 322 322 322 322 323 323 323 325 325 326 326 325 326 328 329 330 331 335 336 337 337 336 336 336 335 331 331 331 330 330 329 328 328 328 328 328 330 329 327 325 324 323 323 323 322 321 321 322 321 321 319 318 317 317 316 315 314 314 315 315 315 316 315 316 314 315 317
299 295 297 297 298 298 297 297 294 296 300 299 300 300 299 297 296 299 298 298 298 301 302 304 316 325 325 323 323 322 322 322 323 323 324 324 324 324 325 325 327 325 326 327 328 330 329 332 335 336 337 336 335 336 335 332 331 331 330 329 329 327 327 327 327 328 329 329 327 326 324 323 322 322 322 321 321 321 321 321 320 319 320 318 317 317 316 313 313 314 313 314 314 314 316 315 314
297 296 297 296 297 297 297 295 294 296 297 297 299 299 298 297 296 298 298 298 300 307 309 307 316 324 324 323 322 322 322 322 323 323 324 325 325 326 325 326 327 325 325 326 327 328 329 330 334 335 336 336 336 336 335 334 333 332 330 329 329 326 328 327 327 327 328 328 327 326 324 324 322 322 321 321 321 321 320 321 318 320 319 318 316 316 317 315 313 312 313 315 314 315 315 315 314
297 297 296 297 297 298 296 296 296 296 297 297 297 294 295 296 298 297 298 298 301 307 313 314 318 321 321 321 322 321 321 322 323 323 324 325 326 326 325 325 326 326 326 327 327 328 329 329 332 334 335 336 336 335 334 334 333 332 331 330 329 326 327 327 326 325 327 327 326 326 324 325 323 322 322 321 321 320 318 319 318 318 317 317 315 317 314 314 314 313 312 313 315 313 314 315 315
298 297 297 295 296 297 297 297 297 297 298 297 295 294 296 296 297 293 297 300 302 309 313 315 317 318 320 320 320 321 321 321 322 324 324 325 326 326 326 325 326 327 327 327 327 328 328 328 330 333 334 334 335 334 333 334 333 332 331 330 328 327 328 327 326 326 324 325 326 326 325 324 324 324 323 322 321 320 319 318 317 317 315 317 317 316 316 317 315 314 314 313 312 311 313 314 314
298 296 295 296 296 297 297 296 297 297 297 295 295 295 296 296 296 290 295 301 302 307 309 313 315 316 317 318 318 320 321 323 323 324 323 324 325 326 326 325 325 327 327 327 328 328 329 329 329 332 334 334 334 335 332 333 333 332 332 331 329 328 328 327 326 326 323 323 322 324 326 325 324 324 324 323 322 320 319 318 316 315 317 314 316 315 314 316 316 315 313 313 312 311 312 311 313
297 297 295 295 296 296 296 294 296 296 295 297 296 295 295 295 293 295 295 300 299 303 305 307 310 313 314 316 317 318 321 322 323 323 324 326 327 328 326 327 326 327 328 329 328 328 328 329 329 331 333 332 334 334 333 333 333 332 332 331 330 329 328 328 327 326 326 326 323 324 324 326 325 324 322 324 321 321 320 318 317 316 317 316 315 315 314 314 312 312 312 313 312 311 312 310 311
298 297 294 293 293 291 295 296 295 296 296 296 297 287 289 294 297 295 296 297 297 299 300 301 303 305 309 313 315 317 319 320 322 323 324 325 326 326 327 327 327 327 327 328 329 328 329 331 331 331 331 332 332 334 334 332 332 332 332 332 330 330 329 328 327 326 326 326 325 323 324 324 324 324 323 322 322 320 320 319 318 316 316 314 315 314 313 313 313 311 311 313 313 312 310 308 310
292 294 295 289 288 286 294 295 294 295 297 296 296 288 287 293 294 295 295 297 297 297 298 299 299 302 303 309 311 314 316 319 322 323 324 325 326 326 327 327 327 327 325 327 328 329 329 331 332 332 329 331 330 332 332 332 332 332 332 332 331 330 329 329 328 327 326 326 326 324 323 323 323 324 321 321 321 320 319 318 317 317 316 314 313 313 314 313 314 313 309 311 309 310 309 309 308
294 291 287 291 287 286 293 296 295 295 296 296 294 289 289 291 293 295 296 295 296 296 296 299 300 299 303 305 309 311 313 316 321 323 324 325 326 326 326 326 328 327 326 327 329 329 329 330 330 331 329 330 330 331 331 332 332 332 332 329 332 331 330 329 328 328 327 327 326 326 325 324 323 322 320 319 322 320 319 318 318 316 315 315 314 312 314 314 312 312 310 311 309 309 308 311 308
293 289 286 288 287 288 292 294 294 296 294 296 293 288 289 291 293 295 295 296 295 295 294 297 300 299 300 304 308 310 311 312 314 320 323 324 326 327 327 327 327 328 327 326 327 328 329 330 329 331 330 330 330 330 329 329 331 331 331 331 333 331 330 330 328 328 328 327 327 326 327 326 325 324 322 319 321 320 318 318 316 317 316 315 313 313 313 314 313 313 310 311 312 309 309 309 310
287 289 286 289 288 287 287 291 294 295 294 292 293 290 289 290 293 294 296 294 293 294 294 295 298 299 299 302 306 309 310 312 313 317 321 323 325 326 327 325 327 327 328 327 328 329 328 329 329 330 331 331 331 331 330 328 330 330 330 330 329 332 331 331 329 328 327 328 327 327 327 327 326 325 324 322 320 321 321 319 317 317 316 314 313 312 313 312 311 312 311 310 312 311 308 309 309
286 287 286 286 288 289 290 289 292 294 294 292 291 290 292 292 292 293 295 294 294 294 294 294 296 298 299 301 304 307 308 310 313 316 320 322 323 324 326 326 326 326 328 327 328 329 328 328 328 328 329 330 330 331 329 328 328 328 328 329 328 331 331 331 330 328 328 328 327 327 326 327 325 325 324 322 321 319 320 320 317 316 316 314 313 312 311 311 310 310 311 310 309 312 312 311 311
290 290 288 288 288 286 288 291 293 295 292 291 289 290 292 294 292 293 293 293 293 294 293 292 293 296 298 300 302 304 306 308 313 316 318 322 323 323 324 324 325 326 327 328 327 328 327 327 327 327 329 330 329 330 329 328 327 326 325 321 324 327 330 329 330 330 328 328 327 326 326 326 325 325 325 323 322 320 319 317 317 315 314 313 312 311 310 310 311 310 309 309 309 310 311 309 306
292 294 292 290 289 289 290 292 293 293 292 291 291 292 291 292 292 294 294 292 292 291 292 294 294 294 296 299 301 302 303 306 307 313 316 319 320 321 322 323 323 324 326 327 327 327 327 327 326 325 328 329 328 328 328 328 327 325 322 324 323 324 328 329 329 329 329 329 327 326 326 326 326 326 326 325 323 319 320 318 318 314 314 313 313 313 313 311 311 311 309 308 310 310 310 303 302
291 291 291 289 290 287 290 291 293 293 292 290 290 290 290 291 292 293 293 291 293 293 293 293 294 294 295 297 298 300 302 301 302 305 313 314 318 319 320 322 320 322 323 325 326 327 327 326 327 327 327 328 328 329 329 329 329 329 328 327 325 323 324 327 328 328 328 328 328 328 327 325 325 325 324 324 323 322 320 319 318 316 314 313 313 313 310 308 309 308 308 308 308 310 308 302 303
292 290 288 288 288 290 291 290 293 293 292 287 287 289 291 292 293 292 292 293 294 295 295 295 295 294 295 295 295 297 297 299 299 303 310 313 316 318 320 321 322 324 324 325 326 326 326 326 327 327 327 328 328 328 328 328 328 327 327 323 325 319 321 326 327 327 327 327 327 327 328 327 324 324 324 323 323 322 321 319 318 316 314 313 310 309 309 309 309 310 310 311 309 306 307 304 304
290 289 287 285 289 288 286 289 291 292 288 288 287 287 289 291 291 292 292 294 294 295 295 295 295 296 296 296 296 297 297 298 298 300 304 310 314 317 319 320 321 322 322 323 324 325 326 326 327 327 327 328 327 327 325 328 328 327 325 322 322 323 321 320 323 323 326 326 326 327 327 326 325 324 324 323 323 322 321 320 318 316 316 312 312 311 309 310 310 311 311 311 311 308 305 306 305
291 292 290 289 290 289 287 288 290 290 290 290 287 285 286 287 289 290 293 294 294 294 293 294 294 296 297 297 296 297 297 298 299 300 300 306 311 315 318 319 321 321 322 323 324 325 327 326 327 327 328 328 328 326 325 326 324 321 322 318 318 318 318 317 317 320 323 323 324 325 326 325 324 324 324 324 323 322 321 320 318 317 316 314 313 312 312 312 311 311 311 311 310 311 309 307 305
288 291 291 292 291 289 289 290 287 285 285 287 288 278 278 282 286 290 293 292 292 292 293 294 295 295 294 294 296 296 297 297 300 301 302 305 310 313 315 317 318 320 321 323 324 325 326 326 326 326 327 327 327 326 325 325 324 325 322 321 319 318 319 318 319 321 320 322 325 324 324 325 325 324 324 324 323 321 321 320 319 318 316 316 315 315 315 312 310 310 311 311 310 311 312 310 307
286 287 292 290 291 290 289 288 288 281 281 287 287 281 275 281 283 286 288 287 290 292 292 294 295 296 295 296 297 296 297 297 297 301 301 302 306 310 312 314 316 318 320 321 322 323 324 325 325 325 326 327 327 326 324 323 324 325 324 324 323 321 321 320 317 318 321 320 320 323 325 324 325 325 323 325 324 323 323 322 321 320 319 318 316 317 314 312 311 311 311 310 311 310 309 309 309
284 290 293 292 291 289 288 288 287 284 287 291 288 281 277 279 285 287 287 286 288 289 290 292 294 294 296 297 297 296 299 299 299 301 302 302 304 307 309 310 312 316 317 316 318 319 321 322 324 324 325 324 326 326 323 323 324 324 323 323 322 321 321 320 317 318 319 320 320 320 321 324 324 324 324 323 325 324 323 323 323 321 320 319 316 315 314 311 311 311 310 311 311 310 309 309 309
288 293 294 292 292 289 290 289 286 287 285 282 283 288 282 276 281 285 287 287 287 288 290 292 294 295 296 296 297 296 297 299 300 302 302 302 302 303 305 306 308 309 308 310 314 317 319 320 321 322 323 322 322 324 324 323 323 324 323 323 320 319 318 317 315 316 317 317 319 315 318 321 322 323 323 322 322 324 323 324 323 321 320 320 316 315 314 312 311 311 310 310 310 309 309 309 309
293 294 295 294 293 292 291 285 287 285 281 278 281 284 278 278 280 284 284 286 286 288 291 293 294 295 295 296 297 297 296 295 297 299 299 299 300 301 302 303 302 303 304 306 307 310 314 315 317 319 320 320 321 322 323 323 322 321 321 320 320 317 315 315 313 315 314 312 317 314 313 316 318 320 321 322 322 323 323 323 323 322 321 319 315 316 315 314 314 313 313 312 311 310 310 309 309
294 293 292 290 288 286 284 284 282 284 277 278 281 283 282 277 281 285 286 286 288 290 288 288 290 292 293 294 295 296 296 296 296 297 297 298 298 298 298 301 301 299 300 302 303 306 311 314 315 317 319 319 319 320 321 322 321 320 321 320 319 317 315 315 313 313 313 311 315 314 312 312 312 316 317 318 319 321 322 320 321 321 320 319 316 316 316 315 314 314 314 313 311 311 310 309 308
294 288 285 287 285 283 282 282 283 277 274 277 280 283 283 276 277 283 287 286 286 290 290 292 292 293 293 293 294 295 296 297 297 297 298 298 298 298 297 299 299 300 300 301 302 303 307 310 313 315 314 315 316 318 319 320 319 318 318 318 318 317 316 316 316 314 312 313 313 313 310 308 311 313 314 318 320 321 321 322 320 321 319 319 319 318 317 316 316 315 314 313 312 311 311 309 309
290 288 286 283 279 279 275 278 276 275 275 280 279 282 282 281 284 287 288 289 288 287 289 291 292 294 295 294 294 294 295 295 296 296 296 297 298 299 297 297 298 300 301 300 302 302 304 306 309 313 312 311 314 314 316 316 317 316 317 316 316 316 315 315 314 312 310 311 311 312 309 309 307 307 310 315 318 321 321 321 321 320 320 319 318 317 317 316 315 314 314 313 313 311 310 310 310
288 286 282 280 276 273 270 269 272 272 277 280 281 281 280 281 284 291 292 296 296 291 289 290 294 295 295 295 294 295 295 294 295 296 297 298 299 299 299 298 300 301 300 300 301 301 302 303 304 309 310 307 309 312 313 314 315 314 314 314 315 314 314 313 313 313 310 310 309 311 310 310 309 310 308 310 311 314 315 319 319 319 319 318 317 318 317 316 316 315 313 313 312 312 311 310 310
289 288 287 283 282 275 271 273 273 274 274 277 280 279 275 278 283 285 291 293 293 288 291 292 292 294 294 294 294 294 295 294 294 296 299 300 300 299 300 300 300 301 300 301 301 301 301 302 303 304 305 305 308 310 310 312 312 312 311 312 312 311 312 311 311 312 311 310 308 311 309 307 307 308 308 309 308 312 312 311 313 316 316 317 316 316 315 314 314 313 312 312 311 310 309 309 309
286 289 290 285 284 284 278 278 276 273 273 275 277 277 278 283 285 289 288 289 292 291 292 292 293 294 293 294 296 296 297 297 296 297 298 299 301 300 300 300 301 301 301 301 302 303 303 303 303 304 307 307 309 309 309 310 310 310 309 310 311 311 309 311 309 310 310 310 310 310 309 307 307 308 310 308 310 311 310 310 309 314 317 318 316 315 315 314 313 312 311 310 310 310 309 308 308
286 288 283 284 289 285 280 280 282 277 274 273 275 279 281 283 288 293 289 288 290 290 290 290 291 291 292 292 293 294 295 296 295 297 297 298 298 299 301 301 301 301 301 302 303 304 304 304 304 305 306 305 307 307 309 308 309 309 309 310 308 308 310 310 311 308 309 310 310 309 309 309 309 311 311 309 309 308 307 308 308 309 312 315 316 315 313 312 312 312 310 309 308 308 308 308 306
286 282 286 289 292 289 285 279 277 276 273 274 277 277 277 280 279 285 288 287 288 287 289 289 289 289 291 292 293 295 296 296 296 296 295 297 298 298 298 299 300 302 302 301 303 302 304 305 305 306 305 307 305 307 308 308 308 309 309 309 308 308 308 307 307 308 306 308 306 306 306 306 305 305 304 304 304 305 305 303 306 304 307 307 309 309 308 309 310 309 309 309 308 305 305 303 304
287 286 291 288 282 282 283 281 274 273 271 271 276 276 276 278 281 282 284 285 289 289 288 288 290 290 292 292 293 295 295 296 296 296 296 296 296 298 298 300 299 301 302 302 303 304 305 304 306 308 307 307 307 308 307 306 308 309 310 310 310 308 305 305 304 304 304 307 305 304 305 304 303 300 302 301 302 300 299 300 300 300 300 301 302 303 303 303 306 306 305 305 303 303 303 303 303
291 290 287 288 286 283 281 281 279 279 273 274 272 276 277 280 281 283 288 287 288 288 286 288 290 291 292 292 295 296 296 296 296 296 296 296 297 297 298 299 300 301 301 302 303 303 305 305 306 306 305 305 305 305 304 306 305 307 308 309 309 308 306 306 305 306 306 303 303 302 302 303 302 299 299 298 297 297 297 299 296 297 297 297 297 297 297 298 298 301 301 299 300 302 303 303 302
283 283 283 285 284 285 283 284 280 277 273 271 269 272 274 280 286 286 289 288 287 287 289 289 289 290 291 293 296 295 294 295 295 296 297 297 296 296 296 296 297 298 299 300 302 304 304 305 305 305 306 305 305 303 304 304 305 305 305 307 308 309 309 305 303 303 304 301 300 300 300 301 296 296 294 294 295 295 295 295 294 294 295 295 295 295 294 295 296 297 295 295 296 298 300 298 298
285 286 284 287 281 281 279 279 281 278 278 273 272 274 275 283 288 288 288 289 290 289 288 289 288 290 291 293 295 294 294 294 294 295 296 297 296 296 295 295 295 299 299 300 300 301 301 303 305 305 305 304 304 304 305 304 304 305 306 307 306 306 308 305 303 299 299 296 295 295 294 292 296 294 293 293 294 295 294 294 296 294 294 292 293 297 293 293 294 293 295 295 298 294 295 295 294
Wind_Speed
9 9 7 6 3 1 2 1 1 2 2 3 3 1 2 1 4 4 5 4 5 1 1 3 5 6 4 7 12 9 9 0 1 2 3 2 6 12 13 13 11 10 9 6 5 5 6 9 11 11 11 11 12 12 10 14 14 13 12 13 13 12 14 17 16 16 16 17 16 16 16 17 17 18 17 18 19 18 19 19 19 18 19 19 19 19 20 19 19 18 18 18 17 16 17 17 18
7 7 7 4 3 2 1 2 1 2 3 2 2 2 4 3 4 7 5 4 1 2 1 5 6 11 14 13 10 5 9 6 1 3 5 7 11 11 13 12 12 12 8 6 5 6 6 6 10 11 12 12 11 11 16 17 14 14 13 13 13 12 13 16 15 15 16 15 16 16 16 16 17 17 17 17 18 19 19 18 17 18 18 18 19 19 19 19 19 18 18 17 16 16 17 17 17
7 6 7 7 1 1 1 2 1 0 2 1 3 3 1 7 6 4 6 7 6 4 6 6 8 4 4 3 7 5 0 4 7 6 7 9 12 9 13 12 12 12 10 6 6 6 5 6 9 11 12 11 10 11 15 16 14 13 13 14 13 12 12 14 16 15 16 16 15 15 15 16 17 18 18 17 17 16 16 18 18 17 17 18 18 19 18 18 18 18 18 17 16 16 17 17 17
4 1 1 2 2 3 1 2 3 1 0 4 0 1 2 8 7 6 5 6 5 5 2 3 4 1 7 13 8 9 5 3 2 4 7 7 6 11 13 13 12 10 8 6 6 6 5 7 9 10 11 11 12 12 12 15 15 12 13 14 13 12 13 14 13 15 16 15 14 15 18 17 16 18 17 16 17 17 18 18 16 17 17 17 18 18 18 18 18 18 17 17 15 16 17 17 17
4 2 2 1 2 1 1 2 2 3 2 3 4 0 5 7 9 8 4 4 5 5 3 2 3 2 5 6 1 2 3 4 3 0 3 5 11 11 13 13 11 10 9 8 7 6 6 10 9 9 12 11 12 11 11 14 15 13 13 13 13 12 12 12 14 15 14 15 14 14 17 17 17 18 18 17 18 18 18 17 16 16 17 17 17 18 17 17 18 17 17 16 15 15 15 16 17
4 5 0 2 0 2 2 2 2 1 6 3 4 5 5 7 10 9 4 4 3 4 3 2 3 2 4 3 1 3 6 5 5 2 5 10 12 13 13 11 11 10 9 8 7 6 6 10 9 10 11 12 12 11 12 12 13 14 12 12 13 12 12 12 12 15 14 14 14 14 17 16 17 17 17 16 17 17 16 16 17 17 17 17 17 18 17 17 17 17 16 14 14 15 15 16 16
3 5 1 2 2 1 3 1 1 2 6 3 7 6 8 5 10 11 6 4 3 4 3 4 9 7 7 1 3 1 5 4 3 5 4 10 12 12 12 12 12 11 10 9 7 6 7 10 10 10 10 11 12 12 12 14 14 12 11 10 12 13 12 12 13 14 14 13 13 12 16 16 15 15 15 15 16 16 16 16 16 16 16 16 16 17 17 17 17 17 16 14 14 14 15 15 16
1 2 1 2 1 1 1 1 4 3 2 1 8 10 7 8 6 9 7 4 2 3 0 3 3 6 2 2 4 3 5 2 5 6 10 10 11 12 11 12 12 11 10 8 7 6 10 10 10 10 10 12 10 11 11 12 13 12 11 10 10 13 12 12 13 13 14 13 13 13 13 14 14 14 14 14 13 14 15 15 15 16 16 15 16 16 16 16 16 16 15 13 13 14 14 15 15
3 1 1 3 1 1 1 3 4 2 2 5 4 10 10 10 7 9 5 2 3 2 2 3 7 7 1 7 3 0 2 8 8 9 10 11 11 10 10 13 12 10 11 9 7 6 6 10 10 10 10 10 11 11 12 12 13 13 12 12 11 12 13 12 12 13 14 14 13 12 12 12 12 14 13 13 13 13 14 14 14 14 15 15 15 15 15 16 16 15 14 13 13 13 13 14 14
1 2 1 2 2 2 1 4 2 2 1 4 10 8 9 7 6 7 7 6 4 5 3 3 4 7 5 9 4 2 2 7 10 8 9 10 8 7 12 13 14 13 10 9 7 6 6 10 10 10 10 10 10 11 12 11 11 12 12 13 12 13 12 12 12 12 13 13 12 12 12 12 13 13 12 12 14 15 15 14 14 14 15 15 14 15 15 15 15 15 14 13 12 12 12 13 13
1 1 1 1 0 2 3 3 2 0 2 2 4 7 8 8 9 7 7 5 3 4 1 8 8 11 6 2 0 3 3 5 12 12 10 9 5 8 13 12 13 14 12 11 8 6 6 6 10 10 9 9 9 9 9 10 11 12 13 12 12 12 12 12 12 12 12 12 12 11 11 12 14 14 15 15 15 14 15 14 14 14 14 14 14 14 14 14 14 14 14 13 11 11 11 11 11
1 0 1 2 3 5 5 2 4 2 2 1 2 3 3 9 6 6 6 8 4 5 4 4 5 5 7 3 1 3 5 4 7 9 9 6 4 9 12 9 12 12 14 11 9 7 6 6 6 7 9 10 9 8 8 9 9 8 11 12 11 11 11 12 11 11 11 11 11 11 11 12 13 14 14 14 13 13 14 13 14 14 14 14 13 13 13 13 13 13 13 12 11 10 10 10 10
1 0 2 2 3 2 2 2 7 4 1 2 5 1 3 8 6 10 7 8 6 6 2 2 5 5 3 2 2 3 7 5 5 7 8 5 4 9 10 11 12 12 12 11 10 7 7 6 6 5 7 11 9 8 9 9 9 9 9 11 10 10 11 11 11 11 12 12 11 11 11 11 12 13 12 11 11 13 12 11 12 12 12 12 12 12 12 12 12 12 12 11 10 9 9 9 10
1 1 2 2 1 1 0 1 2 5 3 3 1 1 1 3 4 9 10 8 6 6 2 5 4 9 4 5 1 6 6 6 5 7 6 5 5 9 11 10 11 11 11 11 9 8 7 6 6 5 6 6 5 7 8 9 9 9 10 10 10 9 10 9 10 10 11 10 9 10 10 10 10 11 10 9 9 9 9 10 11 11 11 11 11 11 11 11 11 11 11 10 9 9 8 9 9
1 0 1 1 2 0 2 4 6 2 3 2 3 4 2 3 4 3 11 8 1 1 2 4 3 4 6 8 5 9 8 10 7 6 5 4 6 10 10 10 10 10 10 10 9 8 7 6 6 5 5 5 5 5 4 7 10 10 10 10 10 10 10 10 11 11 11 11 11 10 9 10 11 11 10 10 9 9 9 9 9 9 10 10 10 10 10 10 10 10 10 9 8 8 8 8 8
1 1 1 0 4 2 5 4 2 6 2 3 3 4 6 4 2 4 0 5 2 1 1 1 3 1 6 9 8 13 11 11 8 6 6 5 5 7 9 9 9 9 9 10 9 8 8 7 6 6 5 5 4 4 5 5 8 10 9 10 10 10 10 10 10 10 10 10 10 10 10 8 8 8 10 8 10 9 10 8 10 9 10 10 10 10 9 9 10 9 9 8 8 7 7 7 7
1 2 0 1 3 2 4 2 5 3 1 4 2 4 5 2 1 2 1 5 9 1 5 3 1 3 3 4 11 13 13 11 8 6 6 6 7 6 7 7 7 7 7 9 8 7 8 9 8 6 5 6 5 5 5 5 7 10 8 10 10 10 9 10 10 9 9 9 9 9 8 6 5 5 6 5 8 6 9 10 9 10 10 10 10 10 9 9 9 8 7 7 7 6 5 5 6
2 2 2 2 4 1 3 5 5 4 8 5 5 4 7 5 0 1 3 7 7 5 9 3 8 6 3 7 14 14 14 14 9 10 8 6 7 6 7 6 6 7 7 8 8 9 8 7 9 8 6 7 6 5 4 5 6 7 6 5 5 6 7 8 6 5 5 4 7 6 4 5 5 4 5 5 5 5 7 10 10 9 10 10 10 10 9 8 7 6 5 5 5 4 4 3 3
2 1 2 6 2 3 1 2 4 6 3 9 5 2 6 6 8 4 5 4 6 6 3 3 8 6 8 11 13 14 14 13 9 10 11 9 9 9 9 7 7 6 6 7 7 10 8 8 8 9 8 8 7 6 5 6 5 5 5 5 5 6 5 5 5 5 4 4 4 3 3 2 4 4 4 5 5 6 7 9 10 9 8 8 8 8 8 7 6 5 4 4 3 3 2 2 2
3 2 2 5 3 2 3 3 4 3 11 8 7 4 5 5 3 2 4 8 7 8 7 2 8 9 9 10 12 13 13 13 8 10 11 8 8 9 8 7 7 7 6 7 7 7 9 8 9 9 9 9 8 6 6 5 5 5 5 5 5 5 5 4 4 4 5 4 4 4 3 3 4 4 7 10 7 5 5 7 8 8 8 8 8 5 5 5 4 4 4 4 3 2 2 3 3
2 2 3 2 1 1 3 4 5 5 12 10 8 4 4 5 4 4 7 8 4 5 9 12 10 12 11 12 12 12 13 13 8 8 10 8 6 5 7 7 6 7 6 5 5 7 9 9 8 8 9 8 8 7 7 7 6 5 5 5 5 6 5 5 5 4 4 4 5 5 4 5 5 5 5 5 5 4 4 4 3 3 3 3 4 3 2 2 2 1 1 1 1 1 2 4 3
1 5 6 2 2 0 1 3 6 1 4 11 6 7 5 1 3 5 10 8 6 7 9 8 16 15 15 13 12 11 13 14 11 10 12 11 11 10 6 4 3 5 5 6 6 6 8 9 9 8 9 7 9 8 8 8 7 6 6 6 6 5 6 6 5 5 5 4 4 5 6 6 6 6 5 5 5 5 4 5 3 3 3 3 2 2 1 2 1 1 2 1 2 1 2 4 3
2 3 3 1 3 2 1 4 5 0 5 6 7 4 5 4 4 4 7 6 4 4 4 9 16 17 16 15 13 12 12 14 13 12 13 12 11 10 10 8 8 8 7 7 6 5 6 9 9 9 9 8 9 9 7 7 7 7 6 6 7 6 5 6 6 6 6 5 5 7 7 6 6 6 6 5 5 5 5 5 5 4 3 4 3 4 3 3 2 2 2 2 2 2 3 2 2
4 5 0 1 1 2 1 1 5 2 10 6 4 5 5 6 5 2 3 2 3 3 3 12 16 13 13 13 13 16 15 15 15 13 12 13 12 13 11 11 8 5 6 7 6 6 6 8 9 10 9 9 8 8 8 8 7 7 8 7 7 7 7 6 6 6 6 6 6 6 6 6 6 6 6 6 6 5 5 5 5 5 4 4 5 5 5 3 3 3 2 2 2 3 0 1 1
4 4 1 1 1 1 0 1 3 3 3 1 7 6 5 4 4 3 3 4 4 1 4 11 13 14 13 15 14 12 12 11 11 9 6 6 7 6 6 7 8 7 9 8 7 7 7 7 8 10 10 10 8 9 8 7 7 7 8 8 7 7 6 6 7 6 6 6 5 7 5 7 5 6 6 6 6 7 6 5 6 6 6 6 5 5 5 5 4 3 3 4 2 0 1 2 1
3 5 2 1 0 0 1 1 1 2 1 3 6 3 1 1 1 3 5 5 3 4 11 11 13 14 13 14 14 13 12 13 11 10 12 9 8 8 8 8 10 10 11 10 9 8 7 6 8 9 10 10 9 9 8 8 7 7 8 9 7 7 7 7 5 6 7 6 6 5 6 6 7 6 6 6 7 7 6 5 6 7 7 6 5 5 6 4 4 3 2 2 1 1 1 3 1
2 1 3 5 3 2 1 1 0 1 1 1 6 2 1 2 1 3 2 6 4 7 11 11 13 13 12 11 11 11 14 14 15 12 9 9 11 11 10 8 11 12 11 11 10 9 8 7 8 9 9 9 8 8 7 8 8 6 7 7 7 7 7 6 5 6 6 7 6 5 6 6 6 6 6 6 6 5 5 5 5 5 5 6 6 5 4 5 4 4 4 4 3 3 4 4 3
4 4 2 3 2 2 0 2 1 1 0 2 6 1 0 2 1 5 5 7 8 11 10 10 10 11 10 10 11 10 11 12 11 10 14 13 12 12 12 9 11 11 12 12 10 9 10 10 9 9 10 9 9 8 7 8 8 7 7 7 7 7 6 6 6 5 6 6 4 4 5 6 5 5 6 5 6 6 6 6 5 4 5 5 5 5 5 4 5 5 4 4 4 3 4 3 3
4 3 2 0 1 1 1 4 2 1 1 2 3 3 1 1 6 7 6 7 6 11 10 10 10 10 9 9 9 8 10 10 9 11 13 13 11 11 13 10 10 11 9 12 11 9 12 11 10 10 10 9 10 10 8 7 7 7 7 7 6 7 7 6 6 6 6 5 4 4 4 5 5 5 6 6 6 7 6 6 5 5 5 6 5 5 5 4 3 2 2 2 2 1 0 1 1
1 2 1 1 0 2 5 0 2 2 1 1 1 2 6 9 12 4 5 8 5 7 7 7 8 8 9 9 9 10 7 8 11 12 11 11 10 10 12 10 9 10 9 8 10 11 10 8 7 7 9 10 11 9 8 7 7 7 7 6 7 7 7 6 6 6 6 6 5 4 4 5 6 5 5 4 5 6 6 6 6 5 5 4 4 5 5 5 5 3 3 1 2 0 1 2 0
2 2 1 2 2 3 3 4 4 3 1 1 1 3 5 5 7 5 5 7 10 9 7 7 6 7 7 8 9 10 10 11 14 13 11 12 11 9 12 10 9 8 8 8 12 12 10 10 8 7 8 9 9 9 10 8 7 7 7 7 7 7 7 7 6 6 6 6 6 5 4 5 5 5 4 5 5 5 6 6 6 7 5 4 5 4 6 4 5 5 3 3 2 2 2 3 3
1 3 4 0 4 4 2 1 7 6 1 1 2 1 7 6 5 4 7 6 7 8 7 7 7 6 7 7 8 9 10 11 12 12 12 13 12 10 11 11 11 9 10 10 10 10 11 10 10 9 7 8 8 9 8 8 8 7 7 7 7 7 7 7 7 7 7 6 6 6 6 5 5 4 4 3 5 6 6 6 7 6 5 5 5 4 4 5 5 4 3 3 3 4 3 5 3
1 4 1 3 3 4 1 2 4 2 3 0 2 4 2 3 3 2 4 8 7 8 6 6 8 8 7 7 7 8 7 6 7 11 12 12 11 10 11 10 11 12 10 9 10 10 11 11 12 12 11 9 8 7 6 6 7 7 7 7 8 8 8 7 6 6 6 7 7 6 6 7 6 5 4 4 4 5 5 6 6 6 5 6 5 5 6 6 5 5 4 4 5 5 5 5 4
3 1 3 3 6 2 2 3 2 2 5 4 2 2 4 3 1 3 3 5 5 7 8 8 8 8 8 7 7 8 9 9 10 11 12 12 11 12 11 11 11 11 10 10 10 12 12 11 11 12 11 10 9 8 7 6 7 7 6 6 7 8 8 7 7 7 7 7 7 7 7 7 6 6 6 5 5 5 5 5 5 5 5 5 6 5 6 4 4 4 5 4 5 5 5 5 6
1 2 3 5 1 6 5 3 4 6 2 5 3 3 8 8 2 4 5 3 7 7 8 9 9 8 8 8 8 9 9 10 12 10 12 12 12 12 11 11 10 10 10 11 10 10 9 10 10 11 11 10 9 8 7 6 5 5 5 6 6 7 7 7 7 7 8 7 8 7 7 7 8 7 6 6 5 5 5 5 5 5 5 6 6 5 4 4 4 3 5 5 4 5 5 5 5
6 7 6 5 4 3 4 5 1 8 6 4 5 7 10 11 5 4 4 4 6 8 6 5 6 7 8 9 9 8 9 12 10 10 10 10 11 11 11 10 10 11 11 11 10 9 10 9 9 9 10 11 8 8 7 7 6 7 7 4 6 6 7 7 7 8 7 8 7 7 7 6 7 8 7 6 6 6 5 5 5 5 5 6 6 5 5 5 6 5 5 5 4 4 3 3 2
2 1 3 8 8 2 2 2 1 0 3 7 8 9 7 7 5 7 6 3 4 4 6 8 7 7 9 9 10 12 11 13 10 11 11 12 11 10 9 10 10 10 10 11 11 10 11 11 10 11 10 10 9 9 9 9 9 7 5 7 7 7 7 7 8 7 7 7 7 7 7 7 7 8 9 8 7 7 7 6 6 5 5 6 6 7 7 6 5 6 5 4 5 4 4 1 1
6 2 2 6 4 6 2 1 0 2 2 3 3 3 6 8 6 8 3 4 9 11 9 9 10 9 8 11 12 11 12 4 3 5 8 8 8 9 8 8 8 11 9 11 13 13 11 10 12 11 9 10 11 11 10 10 10 10 10 10 8 6 7 8 8 7 8 7 7 8 6 6 7 7 8 8 8 8 7 7 6 6 6 6 7 6 4 4 4 4 3 3 3 5 5 3 4
4 4 3 3 6 1 1 1 1 1 1 5 3 6 9 9 9 5 5 9 8 11 12 13 13 10 9 8 9 10 6 8 7 10 10 10 11 11 10 9 10 13 13 14 13 12 12 11 11 11 10 11 11 11 10 11 9 8 8 6 8 5 4 6 7 7 7 7 8 8 8 7 6 7 8 8 8 8 8 8 7 6 6 6 6 5 5 5 5 6 5 6 4 1 2 2 4
7 3 1 5 5 6 3 2 1 1 1 1 1 1 8 6 5 7 7 9 7 8 11 9 9 13 12 12 12 11 12 10 10 11 13 12 12 12 11 11 11 10 10 10 11 13 12 12 11 12 12 11 11 11 12 11 9 7 5 4 4 6 6 5 6 6 7 7 9 8 8 8 8 7 8 8 8 7 8 8 7 6 7 6 7 7 6 6 5 6 6 7 5 4 3 5 4
4 4 1 1 2 3 3 4 1 1 1 1 1 4 7 5 6 6 6 9 7 5 6 7 7 9 10 8 7 10 13 12 11 9 8 10 11 13 14 13 11 12 12 13 13 12 11 14 14 14 13 13 12 12 12 9 7 5 5 3 3 3 0 4 5 6 8 8 7 8 9 7 7 7 7 8 8 8 7 7 7 7 7 7 7 7 7 8 8 7 7 6 6 7 7 4 3
4 4 6 3 3 5 3 5 5 2 2 1 2 2 5 5 7 12 11 5 7 6 8 11 13 12 8 7 12 10 9 9 13 13 13 13 14 12 10 11 12 11 12 12 12 13 13 13 13 12 11 11 12 12 12 10 10 10 9 9 9 7 8 7 11 12 9 9 11 6 6 8 8 8 7 7 7 7 7 7 7 7 7 7 7 7 7 6 5 6 7 8 8 7 7 5 4
6 5 3 5 7 6 7 5 3 1 2 2 1 8 6 6 4 5 7 5 10 6 8 13 12 12 10 12 12 10 12 10 7 7 8 9 10 10 11 12 12 13 12 10 10 11 12 11 12 12 12 11 11 10 11 10 10 11 13 13 11 12 11 9 6 5 8 6 4 7 7 7 8 8 8 8 7 8 7 7 7 7 7 7 7 6 6 7 7 7 7 7 8 7 5 7 7
6 1 3 7 8 7 6 6 3 1 1 1 2 3 3 6 9 6 5 5 9 9 8 10 10 10 12 13 11 9 10 10 11 11 11 12 13 15 16 14 12 14 12 9 9 8 10 11 11 12 10 10 10 10 11 12 13 12 12 12 10 10 11 9 7 7 6 7 6 6 6 7 7 7 8 7 7 8 8 7 8 7 7 7 7 7 7 6 5 4 6 7 6 5 7 7 7
3 2 6 6 8 6 6 6 3 1 1 4 1 0 0 5 8 7 2 5 6 8 9 11 12 12 11 10 10 9 9 8 9 11 12 12 12 12 11 12 12 9 7 9 10 10 10 10 10 9 10 9 9 11 12 12 12 12 12 10 10 7 7 7 6 5 6 7 7 7 6 6 6 6 6 6 6 6 7 7 7 7 8 8 8 7 6 6 7 7 6 6 7 6 6 7 6
2 3 5 4 5 4 6 4 4 1 1 5 4 2 3 7 7 5 2 1 6 8 10 11 11 12 12 12 11 9 7 6 6 7 6 7 7 8 8 6 6 9 8 7 7 6 7 7 9 10 10 9 9 10 12 12 11 9 10 10 11 8 6 5 5 6 5 6 7 6 5 5 5 5 6 6 6 6 6 7 7 9 8 6 6 6 6 7 7 7 8 8 8 8 6 7 9
4 5 7 5 6 4 2 5 3 2 3 7 6 4 3 4 4 6 5 5 7 8 5 6 6 7 9 9 8 7 8 7 6 6 5 4 3 5 5 8 8 5 5 6 7 7 8 9 9 11 12 9 8 10 11 12 10 9 10 10 10 9 8 7 6 7 5 6 7 6 6 5 4 5 5 5 6 6 6 6 6 6 6 6 7 6 7 8 8 8 8 8 8 9 7 8 8
9 3 4 7 4 6 3 2 3 2 6 5 2 2 5 6 4 6 8 6 5 7 8 9 8 8 9 7 5 5 5 5 4 4 4 3 3 2 3 5 5 5 5 6 6 6 7 8 8 10 8 9 8 8 9 10 9 9 7 9 10 9 9 9 10 9 7 8 6 6 5 4 6 6 5 5 6 6 5 5 5 5 5 5 7 7 7 7 6 6 6 6 7 7 7 7 6
4 7 7 8 1 2 1 1 2 4 6 0 2 1 1 9 7 9 7 8 7 6 7 7 8 4 3 3 4 4 4 4 5 5 5 4 6 6 5 5 5 5 7 6 7 7 7 7 8 10 9 7 7 6 8 8 8 8 8 8 8 8 9 9 8 7 6 6 6 6 5 5 4 4 4 5 6 6 5 5 5 5 5 5 5 5 5 6 5 6 6 7 8 7 7 8 9
5 9 7 6 3 2 3 3 1 3 4 3 1 1 3 3 6 13 15 18 16 8 8 5 7 7 6 5 4 4 4 5 5 5 5 6 6 5 5 6 6 6 6 6 5 6 6 6 6 8 8 5 5 6 7 7 8 7 7 8 8 8 8 7 7 7 6 6 5 7 6 6 6 5 5 5 5 5 4 5 5 4 4 3 4 4 5 6 6 7 7 7 7 7 7 9 9
8 4 9 7 7 5 4 3 4 7 6 1 3 2 6 4 4 3 9 9 9 4 3 2 3 5 5 4 3 2 4 5 4 5 5 6 7 6 7 6 6 5 5 5 4 5 4 5 5 6 5 5 5 6 6 7 7 6 6 6 6 5 7 6 5 6 6 6 4 6 5 4 5 4 5 4 4 5 5 4 4 4 4 4 3 4 4 4 4 5 5 6 6 5 6 7 7
2 2 4 6 8 5 5 5 5 2 1 1 0 5 5 5 3 7 4 3 1 0 0 2 5 3 3 4 5 6 6 5 4 5 5 5 6 5 5 5 5 5 5 5 5 5 5 5 5 5 7 6 6 7 6 6 6 5 5 6 6 6 5 6 5 4 5 6 6 6 5 4 4 4 5 4 5 5 5 4 4 4 5 5 4 4 4 4 4 5 5 5 6 4 5 6 6
4 4 5 3 2 9 5 2 0 4 3 6 2 4 6 7 8 11 5 4 7 2 3 1 2 3 2 5 6 6 6 5 4 5 5 5 4 4 6 6 5 5 5 6 6 6 6 6 6 6 5 5 5 6 6 5 5 6 5 5 5 5 6 6 7 5 5 5 6 5 5 6 4 5 5 4 5 4 4 4 5 5 5 5 6 6 5 5 5 5 5 5 6 5 6 6 5
6 2 8 1 2 4 5 4 0 1 4 6 3 6 5 1 6 4 2 2 7 5 5 5 4 4 5 7 6 6 6 6 5 5 4 5 5 5 4 4 5 5 5 5 5 5 5 5 5 6 5 6 5 6 6 6 6 6 5 5 5 5 5 5 5 5 4 4 3 3 2 2 3 3 2 2 3 4 3 4 5 4 4 4 4 4 4 5 5 5 5 5 5 5 6 4 5
4 7 3 7 4 3 2 4 2 2 2 2 2 3 4 6 6 4 4 4 8 9 6 4 6 7 8 6 6 5 3 3 4 4 4 4 4 4 5 5 4 5 5 5 5 5 4 4 5 7 7 6 6 5 5 4 5 5 5 6 5 4 4 4 3 4 4 4 4 4 4 4 2 2 4 4 4 4 3 2 2 2 2 3 3 4 4 4 4 5 4 5 4 4 5 5 5
0 1 1 1 3 2 4 6 4 5 5 1 6 2 5 6 6 6 9 9 9 7 4 7 9 8 7 6 6 5 6 6 5 5 4 4 4 4 5 5 6 6 5 5 5 4 5 6 6 6 5 4 4 4 4 5 4 5 4 4 3 3 3 3 3 3 3 2 2 3 3 2 2 3 4 3 3 2 1 0 0 1 2 1 1 3 2 4 4 4 4 4 4 5 5 5 5
1 2 2 0 1 2 4 1 4 5 4 3 2 2 4 6 6 4 8 5 5 5 7 7 7 6 5 6 7 6 6 6 6 5 5 4 4 4 3 4 4 4 4 4 5 6 6 6 6 6 7 6 5 4 5 4 5 4 5 4 3 2 2 2 3 3 3 3 4 4 4 4 3 3 3 3 2 1 1 1 1 1 1 2 2 3 1 1 2 4 4 4 4 4 5 4 4
4 9 10 10 7 4 5 7 2 1 2 4 3 8 7 9 2 4 4 4 2 2 4 5 5 5 6 6 6 7 7 6 5 5 5 5 4 4 4 4 4 5 5 5 4 5 5 6 6 5 6 5 5 5 5 4 4 5 5 5 5 4 4 3 3 3 4 4 3 4 4 3 4 2 3 3 2 1 1 1 0 1 1 1 1 2 3 2 2 3 4 3 5 4 4 5 4
Wind_Direction
329 326 318 319 314 290 37 9 47 308 65 263 263 10 218 53 137 76 91 50 64 326 166 107 60 41 93 137 121 107 33 347 270 144 207 163 117 118 124 124 123 115 118 123 120 105 102 109 109 108 108 102 99 99 97 94 95 99 99 94 93 90 92 97 95 89 86 83 82 83 85 86 84 81 79 78 78 79 78 78 76 77 75 74 74 75 76 75 76 76 77 81 71 60 53 49 46
317 326 316 325 301 59 298 125 107 359 41 343 273 100 188 135 62 132 124 115 155 147 99 82 63 64 98 119 132 101 28 9 293 130 91 104 115 119 126 125 125 122 125 126 122 110 104 107 112 114 109 102 99 105 99 96 100 101 97 94 97 98 97 95 95 94 90 89 87 84 76 75 82 82 82 82 81 79 79 80 80 79 79 80 77 78 77 76 76 78 79 80 68 59 52 48 47
321 347 338 3 24 92 282 43 307 42 63 253 260 221 71 70 99 114 119 110 118 113 85 66 61 66 87 101 43 58 24 356 69 78 97 130 122 141 129 128 122 127 130 129 121 114 113 119 120 117 110 106 103 101 95 102 104 101 96 97 101 99 94 93 93 94 93 89 88 84 83 86 86 85 82 81 80 81 84 84 78 76 77 79 78 78 79 79 77 78 82 82 70 59 52 49 48
314 274 31 29 335 18 57 21 106 168 258 212 286 312 77 125 120 122 124 123 115 99 70 40 64 274 91 74 107 75 93 102 14 124 126 153 138 139 131 128 130 130 123 125 121 117 119 123 121 118 115 106 100 87 95 97 101 103 100 101 101 100 97 98 100 93 89 89 85 85 89 89 88 87 86 86 87 84 77 77 79 80 79 77 76 75 76 77 78 77 79 82 70 57 52 51 50
334 294 124 54 99 348 91 204 176 121 266 204 180 288 129 124 128 112 111 126 105 102 85 109 74 39 77 102 141 105 160 112 113 316 111 112 135 133 129 131 130 125 125 124 120 118 120 122 121 124 118 107 101 93 100 103 105 104 102 102 101 101 98 93 92 94 93 91 90 84 81 83 86 87 84 83 82 80 77 78 80 78 78 77 78 78 76 77 77 78 78 79 70 58 54 54 55
323 5 306 109 164 183 46 1 329 335 226 155 119 164 161 145 124 120 121 74 67 82 130 91 144 100 43 8 5 108 150 133 175 87 127 141 133 131 132 128 124 124 123 123 123 123 126 128 131 125 118 110 107 103 104 107 103 106 103 106 108 102 100 100 94 93 94 92 91 92 87 83 85 83 85 85 85 86 85 84 79 78 79 80 79 79 78 78 80 78 78 78 69 59 55 54 54
330 18 358 25 340 56 157 181 259 216 278 143 147 156 149 156 132 117 111 79 349 63 35 99 109 97 80 195 51 72 239 163 136 153 138 143 130 132 131 123 119 121 124 125 126 126 134 135 133 124 121 119 110 103 107 105 100 102 103 97 107 107 102 102 100 96 94 94 95 88 92 93 88 90 91 90 91 89 86 84 84 84 80 78 79 80 80 78 78 78 80 76 66 58 54 54 52
218 100 292 99 265 55 276 195 249 149 285 119 152 135 150 144 136 116 137 102 179 109 347 119 103 92 22 49 116 310 24 55 123 128 131 132 131 135 129 122 120 124 124 126 127 133 137 133 128 128 126 122 113 107 105 109 108 108 112 107 104 111 105 100 98 98 99 96 92 90 92 91 90 88 87 89 90 90 90 89 87 84 82 82 81 81 81 81 81 81 80 74 66 58 54 53 52
351 89 321 74 288 1 346 229 245 203 283 100 122 142 150 144 140 124 119 144 101 109 145 90 116 84 203 72 70 322 44 119 112 119 132 136 136 140 125 125 123 126 126 128 131 134 132 135 132 130 129 126 119 113 110 104 107 107 115 116 99 105 106 103 102 101 100 99 96 93 91 93 92 92 88 89 94 96 93 91 89 88 87 85 82 82 83 84 83 81 80 77 69 62 58 56 53
351 100 307 159 133 229 292 301 106 243 190 144 141 152 146 142 131 121 127 119 166 135 186 122 98 108 122 99 100 60 156 126 115 111 134 145 142 130 118 126 127 128 128 131 134 136 137 137 135 133 133 129 122 116 114 108 111 109 112 118 106 104 105 103 102 103 101 100 98 95 93 88 82 70 92 98 90 89 90 90 89 88 85 84 84 83 83 84 84 84 82 79 72 63 60 57 56
354 11 154 60 25 214 213 273 210 306 173 169 127 165 155 137 130 131 141 141 149 135 181 107 78 129 120 81 183 257 158 126 126 141 152 155 139 116 123 128 129 131 133 135 138 138 138 137 138 137 134 128 121 115 111 111 107 113 114 116 113 103 105 106 104 102 102 101 101 99 94 91 73 71 75 84 88 89 90 90 89 88 87 85 83 83 84 84 84 83 82 82 76 66 62 60 57
3 117 36 140 210 179 234 177 196 237 306 138 116 174 170 138 125 116 127 110 132 121 145 127 158 132 82 121 164 165 143 136 138 147 157 153 130 122 127 130 128 133 133 136 136 142 140 138 137 137 130 123 120 116 113 110 110 106 116 118 115 108 106 106 103 100 98 90 82 86 95 92 80 77 77 80 84 87 86 87 87 86 86 85 84 83 83 83 85 86 84 82 78 68 63 60 55
157 184 95 95 236 166 229 124 194 171 181 243 162 228 117 123 142 144 136 126 134 109 127 212 134 103 110 127 195 150 146 186 154 153 157 151 135 124 127 128 130 132 129 135 138 146 146 141 142 136 130 123 118 113 111 112 113 108 103 107 112 116 114 108 104 94 87 88 84 80 82 80 79 75 75 78 81 87 86 84 86 88 89 89 87 87 86 86 86 87 87 83 79 66 62 57 54
132 171 117 225 175 177 128 270 134 143 243 238 234 149 61 112 173 144 123 121 153 142 238 190 78 107 84 96 130 169 182 179 151 160 152 141 130 117 124 129 131 133 135 138 144 149 148 145 141 136 134 126 122 115 114 114 109 105 101 98 94 97 107 102 95 93 93 88 84 84 85 80 75 73 72 69 70 71 78 86 89 88 90 88 89 86 87 88 88 86 85 82 72 62 56 51 49
285 242 94 162 284 70 230 128 208 164 226 156 227 136 117 25 95 104 134 122 165 223 150 81 159 85 199 153 195 194 178 172 155 156 144 127 114 118 123 129 133 136 139 141 144 150 152 143 142 142 139 135 135 130 122 113 112 110 108 106 104 103 106 106 105 102 101 97 96 95 89 85 81 78 74 75 80 82 77 74 82 90 97 96 93 91 90 88 88 87 83 75 68 61 51 43 39
170 81 96 355 252 192 273 182 148 129 228 169 227 111 84 37 15 96 274 145 163 343 66 104 21 146 154 172 188 174 161 158 156 142 141 104 101 123 121 131 137 143 142 142 151 159 153 147 149 147 143 145 141 138 130 124 120 116 113 111 110 109 110 111 112 110 109 107 108 107 103 95 88 82 82 75 80 83 83 81 80 85 94 97 95 95 93 90 89 86 80 76 72 62 49 38 25
54 82 306 1 269 164 260 175 157 212 223 197 204 159 141 97 323 71 324 120 106 32 61 355 88 47 145 209 145 144 148 147 140 138 136 107 124 137 119 130 141 146 142 152 157 163 159 152 154 154 154 154 149 138 132 126 122 115 108 111 113 114 114 114 113 114 113 119 118 124 119 110 107 100 85 85 80 86 89 84 84 83 87 87 88 91 90 87 82 79 80 82 84 71 50 33 19
75 160 131 274 201 155 229 201 187 188 137 196 189 197 124 123 119 129 73 55 88 71 80 31 45 43 78 108 124 135 144 150 150 149 155 135 140 147 143 145 147 165 149 162 164 162 157 159 159 162 159 163 156 147 139 132 134 126 121 122 117 115 116 119 121 129 135 139 139 134 127 129 118 104 101 94 91 91 93 97 94 92 89 94 91 88 86 81 77 82 80 71 85 88 44 16 1
135 181 121 219 197 228 210 240 158 123 185 160 177 171 163 168 137 192 99 129 115 85 45 70 77 59 82 106 123 135 145 156 150 161 160 153 156 160 163 150 160 166 158 164 167 162 163 161 163 168 167 167 158 152 147 150 145 140 141 135 131 133 138 135 139 143 160 157 156 141 109 121 123 116 114 111 101 95 103 107 103 100 96 91 90 90 87 84 81 79 55 45 48 25 11 338 333
233 115 239 250 213 287 0 359 199 172 139 142 163 200 152 193 130 184 132 156 139 146 133 64 118 131 131 130 132 141 150 160 154 163 166 162 162 163 170 165 167 175 170 173 167 163 159 163 170 171 171 166 156 154 152 155 157 151 152 149 145 147 154 156 155 162 177 171 163 159 140 135 121 115 115 113 107 101 97 99 107 106 108 104 99 86 81 90 81 51 23 14 6 13 352 330 312
265 109 205 235 259 287 305 358 318 161 149 155 163 135 132 193 160 140 147 115 197 186 179 157 170 155 151 150 147 147 154 165 160 166 167 169 171 174 182 177 171 174 172 173 166 168 166 166 168 172 171 160 154 152 155 165 163 159 162 160 160 159 165 171 174 180 196 178 169 168 144 144 134 133 131 124 124 126 122 125 125 132 127 122 109 109 117 90 79 57 355 357 352 326 332 299 278
104 207 214 232 311 95 275 300 322 165 138 134 142 133 188 132 99 151 151 161 196 194 201 176 158 158 154 158 161 154 161 170 171 169 174 174 177 179 182 187 165 169 164 175 192 176 172 169 170 170 169 160 158 159 165 169 165 168 170 170 168 172 167 177 185 185 209 172 176 141 143 145 139 139 141 141 143 147 148 160 171 163 154 163 149 134 168 149 164 216 200 228 260 293 260 257 260
247 291 229 202 235 165 290 341 330 265 131 139 138 186 113 144 177 187 148 164 226 198 185 170 158 167 166 155 154 162 166 175 178 178 176 176 179 182 186 187 179 177 179 189 193 189 180 171 172 163 171 161 161 163 162 166 176 173 171 171 171 184 173 176 191 186 197 178 161 146 145 146 147 151 156 155 159 162 172 177 180 183 188 187 187 156 187 193 193 231 243 235 253 253 252 238 194
187 236 304 337 334 160 246 359 334 33 132 155 152 138 132 138 149 209 140 251 196 241 228 165 165 152 142 152 168 169 173 177 186 185 183 184 177 181 184 185 189 174 177 185 192 195 185 180 169 164 170 169 164 167 164 171 180 172 175 174 177 184 173 181 189 188 184 181 155 163 152 152 158 159 178 167 177 172 192 186 182 184 197 214 178 170 186 193 212 227 245 261 247 245 223 7 27
197 252 249 211 65 289 312 54 6 27 55 68 112 135 172 161 169 127 207 180 195 109 104 140 137 148 159 159 168 175 177 181 183 186 184 192 193 186 183 180 182 170 186 186 192 196 196 185 170 167 167 173 167 169 170 178 180 173 172 176 180 181 185 182 183 181 175 188 169 162 168 153 162 169 179 183 167 184 196 192 176 191 189 210 160 182 180 190 198 211 220 204 198 336 4 297 358
219 222 144 126 87 93 294 72 13 34 15 98 87 83 1 196 124 178 187 195 207 127 101 120 137 148 162 170 170 171 179 184 183 182 189 186 194 199 201 183 182 183 187 184 186 198 197 185 180 173 168 174 170 167 173 179 181 170 174 178 177 171 183 184 159 157 182 176 187 171 171 161 170 176 184 187 164 183 188 185 174 180 185 188 164 166 197 173 205 249 244 203 172 238 274 253 258
265 204 152 143 181 128 288 130 211 330 85 49 122 129 102 302 151 248 212 183 156 114 121 134 144 161 167 170 175 179 178 183 186 186 178 184 194 201 205 189 187 188 180 185 187 193 195 184 188 177 170 171 170 170 170 178 179 173 173 171 167 173 174 175 168 154 153 176 190 181 172 174 163 181 180 180 184 171 179 173 177 173 178 178 177 175 185 182 200 210 206 203 204 205 210 230 200
295 133 60 79 133 159 158 101 196 73 3 100 109 96 237 330 66 221 192 185 157 130 140 149 154 164 170 175 178 185 188 190 185 178 188 189 193 197 202 192 191 184 182 187 187 183 189 191 185 183 173 171 170 176 169 177 183 175 176 162 171 172 167 174 177 175 169 160 175 195 186 184 170 167 182 188 176 175 175 179 180 168 191 186 182 177 180 196 194 215 210 197 193 184 216 221 223
281 155 236 284 60 113 166 143 214 99 257 155 138 98 288 258 221 226 199 161 159 141 156 161 165 170 172 177 181 185 195 187 183 190 197 197 193 195 199 191 182 184 190 181 183 175 186 188 181 186 177 172 174 179 177 178 180 173 172 171 170 168 171 173 180 190 190 181 161 179 211 201 191 170 172 192 188 176 176 178 185 190 196 187 184 183 181 196 182 189 209 178 134 88 33 315 319
268 337 136 6 8 316 239 169 122 118 258 51 191 208 253 229 231 244 182 151 128 132 158 175 175 173 176 175 180 190 191 181 191 198 196 196 198 195 197 198 179 182 183 183 175 182 181 186 180 179 181 178 180 178 178 175 181 174 170 170 172 169 174 176 186 189 195 199 179 177 192 215 203 188 167 176 192 183 178 178 184 197 201 191 185 176 182 188 191 172 206 163 211 213 274 281 23
184 237 123 204 98 269 247 163 168 128 241 91 88 191 279 261 262 206 200 160 150 167 182 185 184 188 177 179 180 187 193 188 193 196 196 197 197 194 195 197 189 178 175 183 183 184 178 182 179 179 177 179 178 180 180 180 179 173 170 168 176 174 175 180 182 182 188 199 197 190 188 199 212 197 175 165 182 188 181 184 188 195 188 185 182 190 175 189 180 196 176 188 231 255 256 263 228
223 174 244 237 150 278 309 272 164 157 285 76 107 270 237 260 290 197 176 174 156 171 185 190 192 190 192 181 185 188 195 196 199 196 196 197 193 194 190 193 193 184 179 184 187 182 184 182 184 182 174 174 179 178 181 178 178 179 173 172 173 177 178 181 183 186 182 188 200 199 186 189 199 205 188 170 175 188 186 186 194 184 183 174 184 180 170 184 190 194 207 174 194 246 244 257 238
261 154 259 205 148 242 357 261 206 149 130 21 168 204 316 298 240 194 180 168 172 170 187 193 199 197 191 193 191 193 196 208 208 200 198 194 196 195 195 191 191 193 186 179 183 184 185 184 184 185 185 181 182 177 172 178 177 179 179 178 176 178 182 185 182 186 185 187 196 204 189 185 193 195 210 192 187 179 183 187 191 183 176 175 177 181 186 189 181 199 214 205 185 210 213 233 248
286 128 202 212 180 199 234 305 227 180 143 202 230 185 237 256 271 221 199 160 159 174 193 196 197 198 195 192 194 194 198 201 203 201 201 193 195 194 194 194 193 191 193 187 182 183 184 182 185 187 189 187 184 186 180 178 187 180 182 179 179 183 188 185 183 180 190 192 192 203 196 185 195 199 205 200 194 196 185 184 191 186 176 176 179 180 199 189 193 187 214 215 199 191 209 215 233
176 154 202 281 307 178 191 156 237 137 229 184 174 239 273 272 260 234 221 197 174 196 195 197 196 197 199 194 194 198 200 202 211 202 196 194 191 193 192 192 190 189 191 189 183 186 177 179 181 185 184 186 186 186 183 176 176 186 183 183 182 188 187 191 184 187 191 193 197 199 201 190 187 198 200 192 195 202 201 198 187 192 181 181 179 185 194 200 202 197 202 224 221 208 200 209 219
201 175 181 204 208 237 209 229 282 171 174 205 178 208 232 246 258 251 254 224 189 211 211 210 209 204 199 198 202 201 205 213 212 204 199 196 192 187 189 188 187 187 187 186 181 177 178 172 175 179 185 181 176 181 178 182 178 180 182 192 195 193 189 190 195 192 187 196 200 196 199 199 189 190 199 198 198 199 201 203 199 187 185 174 180 186 204 198 201 205 222 203 218 245 244 194 164
271 310 185 210 214 260 300 279 281 25 133 217 206 220 230 248 229 242 218 204 235 249 229 222 214 202 202 204 204 207 207 215 209 202 199 198 194 189 187 181 184 185 184 182 180 180 179 176 170 180 183 176 173 176 184 186 189 192 199 200 199 192 192 188 193 197 197 198 195 197 194 199 199 194 194 195 201 200 203 203 198 191 185 182 186 203 203 201 200 198 204 198 197 215 239 189 130
252 261 200 255 209 220 261 267 293 330 149 264 214 244 258 254 251 242 221 152 220 216 218 223 222 213 204 202 208 209 214 234 180 212 218 204 197 193 184 183 175 178 192 182 186 189 183 175 178 179 177 181 184 184 186 192 197 198 194 201 193 179 183 188 196 199 200 199 204 206 201 193 197 200 199 195 196 194 199 202 199 190 184 193 200 207 193 191 191 199 185 223 227 202 225 188 206
244 234 206 226 245 163 271 344 12 295 80 263 351 224 254 248 246 249 178 196 221 212 201 206 203 215 217 212 213 215 222 221 197 205 202 201 197 194 186 189 191 188 187 187 190 186 186 180 186 182 182 183 189 188 186 197 199 200 196 199 187 191 197 190 188 192 190 199 207 209 209 206 191 196 197 199 196 195 197 197 201 191 189 185 189 200 194 194 193 199 197 205 229 239 225 211 203
237 269 104 218 205 143 252 292 42 4 124 249 27 320 278 286 273 253 231 205 229 215 211 222 200 202 210 211 201 201 213 210 205 200 201 201 196 195 192 193 194 190 188 193 191 188 188 188 189 188 186 186 188 192 193 199 196 193 199 180 187 182 186 187 187 184 194 201 211 206 209 205 201 194 192 195 196 194 193 196 192 188 192 183 187 194 196 204 196 202 201 215 189 224 219 238 212
239 198 166 164 159 209 154 210 100 329 12 78 27 348 304 261 270 280 251 225 239 231 218 238 245 231 219 220 218 207 202 201 206 207 206 196 198 199 196 195 187 191 193 193 191 190 191 191 191 189 188 189 190 191 192 185 169 175 184 180 169 185 87 172 186 210 199 199 201 203 208 195 194 193 192 193 191 191 193 194 190 192 187 189 189 197 198 206 204 200 197 201 197 211 237 227 224
237 234 185 195 185 126 80 105 96 34 321 295 123 1 290 278 248 236 238 244 233 227 206 224 225 230 232 231 223 222 226 208 197 200 200 197 196 198 201 195 193 195 196 196 194 193 190 193 191 189 191 193 193 192 186 175 181 183 178 183 190 193 204 193 202 204 199 201 208 195 196 196 198 201 198 197 196 194 195 196 194 190 195 193 195 203 208 201 204 199 200 199 207 212 227 233 228
195 257 183 160 141 123 132 140 91 73 187 304 88 181 266 324 299 250 256 250 252 250 215 226 221 228 224 226 225 214 213 220 233 219 201 191 202 193 199 197 197 197 202 193 194 196 195 192 193 190 191 195 194 187 179 179 185 191 193 196 196 197 201 215 211 200 196 207 185 189 196 196 202 202 208 204 201 199 199 195 195 197 197 199 200 204 205 202 200 202 198 199 207 205 200 242 243
221 240 134 121 116 129 168 139 134 188 235 324 57 126 193 291 281 267 249 229 250 252 242 241 230 228 226 227 224 215 214 209 199 206 205 201 193 191 195 199 196 201 196 188 193 191 191 192 192 196 194 192 191 185 182 185 189 193 195 199 195 196 201 202 188 195 196 183 180 189 186 199 202 201 201 204 201 196 198 198 196 198 201 201 192 203 205 203 199 209 199 205 204 193 196 218 243
214 215 152 149 155 166 138 128 136 129 114 269 319 249 231 258 269 297 307 266 292 262 242 240 234 228 229 229 224 219 212 205 197 199 204 203 201 203 200 196 204 195 179 186 192 193 193 193 194 195 196 188 191 188 189 192 192 190 192 191 195 200 186 186 185 178 175 183 191 196 193 199 203 207 203 197 199 196 194 200 197 199 203 206 193 197 200 192 197 200 199 200 202 207 203 218 232
257 166 91 82 85 85 127 102 110 15 86 254 250 190 195 279 277 323 340 270 269 254 241 237 231 225 223 225 228 220 216 214 213 214 208 205 208 211 209 203 191 198 194 189 188 185 190 187 194 193 200 193 190 190 192 195 194 184 188 192 193 191 179 189 181 190 190 182 191 195 198 197 200 202 205 205 204 205 199 201 200 202 203 193 183 194 198 203 204 207 204 205 204 208 207 209 223
124 90 73 42 40 50 31 73 98 78 277 250 232 250 162 285 269 214 201 223 208 241 283 275 260 252 247 241 233 221 218 220 218 210 207 205 223 190 169 184 199 197 199 191 190 187 184 187 190 196 202 195 190 189 188 193 189 185 191 188 189 185 186 182 191 207 196 192 202 207 201 203 198 201 194 204 202 198 199 194 197 198 195 194 193 194 204 204 206 208 209 204 204 206 206 211 221
130 111 122 81 2 15 31 351 41 144 261 263 244 201 163 202 289 274 240 278 249 217 233 245 254 245 241 234 223 205 183 179 174 162 171 154 127 136 137 149 161 173 165 187 192 188 185 186 183 193 199 195 191 186 184 188 184 184 179 176 182 182 180 188 194 195 194 199 201 209 217 205 209 195 190 195 202 201 200 200 200 203 206 207 213 209 211 209 207 206 202 201 210 212 214 210 216
89 104 116 135 191 43 320 19 227 229 210 258 334 198 3 242 229 258 273 264 284 237 208 226 229 240 232 197 183 176 181 170 176 191 189 189 186 186 182 179 171 176 183 184 188 186 187 183 184 185 198 190 187 175 180 180 180 183 177 176 177 179 187 188 187 185 187 190 193 201 196 202 196 186 203 193 200 193 193 204 206 212 214 209 204 197 204 200 202 205 209 216 217 212 208 211 219
116 146 147 131 122 115 195 260 231 307 292 269 241 308 256 241 279 245 247 256 250 237 243 220 183 184 190 193 191 190 202 192 198 196 196 201 201 206 208 195 194 194 196 194 195 192 192 189 190 188 192 184 179 173 173 174 185 179 175 173 181 180 189 181 185 185 186 181 178 191 190 189 194 199 196 201 196 182 186 195 193 204 210 208 214 220 214 211 207 208 213 219 217 215 212 219 227
192 151 157 172 147 152 192 179 197 213 207 281 281 90 234 130 244 239 241 259 280 221 232 237 218 193 185 190 190 220 229 241 224 205 200 203 209 202 204 205 203 198 194 195 196 202 187 192 182 183 179 190 173 174 166 174 179 178 179 178 170 168 172 179 182 176 173 176 181 175 190 187 188 211 198 222 211 196 203 195 190 187 194 207 202 210 214 213 216 222 224 222 225 210 213 219 226
273 181 90 138 209 139 150 202 159 183 176 4 260 208 184 178 251 284 226 288 262 352 247 84 161 184 169 164 195 213 224 228 218 208 218 220 205 197 191 190 187 185 189 188 192 188 187 192 181 182 181 181 180 173 178 172 176 171 167 164 166 161 157 155 158 172 178 173 177 176 189 191 199 204 222 215 228 211 208 204 204 209 205 215 221 222 220 217 215 219 222 218 229 207 222 228 234
227 115 196 208 152 102 103 55 143 111 56 255 178 315 285 297 313 274 296 235 251 277 249 243 239 236 269 229 228 226 222 218 218 212 212 212 204 192 185 183 183 179 179 187 189 185 183 177 177 179 176 166 170 171 164 163 160 162 175 161 145 148 156 166 166 172 181 186 175 178 177 206 213 219 229 216 217 204 194 189 200 216 217 209 208 206 207 210 214 217 218 221 226 216 220 233 233
104 155 220 217 139 122 135 191 13 121 184 259 119 206 288 356 279 312 352 317 275 271 259 247 248 240 229 237 240 225 207 207 211 217 209 194 186 184 182 178 171 171 171 172 180 180 176 173 169 163 158 160 165 158 161 163 158 159 161 159 150 144 153 162 163 168 163 153 170 180 177 187 213 219 176 162 160 167 173 185 194 211 215 213 219 223 216 213 212 220 221 224 222 207 219 228 223
153 187 205 129 223 233 284 110 209 183 236 261 261 241 258 177 236 329 298 237 255 250 237 244 242 228 225 232 248 263 253 194 203 187 166 178 177 175 175 173 173 163 166 168 167 161 153 151 157 156 164 164 162 155 142 138 146 151 156 160 153 131 117 118 119 117 119 140 169 174 173 181 142 126 115 109 105 114 120 130 155 183 184 209 227 230 227 232 222 222 224 228 226 207 214 222 226
194 40 64 54 110 187 130 198 171 123 248 167 289 88 234 212 217 207 244 232 235 252 241 231 225 224 221 218 222 219 209 198 202 191 177 171 179 169 160 159 157 157 156 161 153 146 143 146 146 150 144 144 141 144 137 133 136 132 134 130 135 131 127 135 141 127 108 115 138 133 135 104 105 87 89 94 94 102 108 112 326 306 284 259 226 240 239 238 230 236 228 227 227 215 222 226 226
216 85 209 235 15 232 113 35 139 172 182 180 196 301 281 257 214 197 248 262 262 222 228 233 237 241 230 226 209 210 214 207 208 183 166 156 153 149 138 125 124 121 127 133 141 148 147 146 151 155 154 155 151 153 140 146 139 139 140 147 153 187 216 154 137 133 124 121 123 111 107 138 108 72 106 82 92 89 85 85 27 351 298 290 298 299 278 201 216 233 239 227 233 222 228 242 234
179 169 189 178 131 126 162 246 16 107 143 226 169 249 265 270 203 200 233 251 264 262 228 249 257 250 230 223 225 208 213 223 210 180 156 150 140 136 121 104 106 113 124 129 136 127 133 146 151 147 140 151 152 157 158 155 152 147 155 169 176 178 177 146 124 111 112 110 105 110 134 78 92 54 83 104 94 86 77 77 63 339 332 318 310 289 302 310 245 239 260 246 234 231 238 250 246